sat.trackr.live / text

‹ back to catalog

ONEWEB-0115

NORAD 48042 · 2021-025A

PAYLOAD ACTIVE UNKNOWN

§ Identity

Operator
Country
UK
Launch date
2021-03-25
Launch site
VOSTO
Launch vehicle
Mass (kg)
RCS (m²)

Purposes: comms

External: N2YO · Heavens-Above · Gunter

§ Orbital elements

Epoch: 2026-05-25T00:25:31.274112Z

Period
109.63 min
Inclination
87.8946°
Eccentricity
0.0001821
Mean motion
13.13468939 rev/d
Perigee alt
1,208.4 km
Apogee alt
1,211.2 km
Semi-major
7,587.9 km
B*
6.4958e-4
RAAN
324.8386°
Arg perigee
90.0184°
Mean anomaly
270.1154°
Rev number
25,055

§ Raw data

ONEWEB-01151 48042U 21025A   26145.01772308  .00000250  00000+0  64958-3 0  99952 48042  87.8946 324.8386 0001821  90.0184 270.1154 13.13468939250554

JSON: /api/v1/satellites/48042 · /tle

For live sub-satellite position, see the globe view (requires WebGL).

§ Visibility from observer

Set your observer location to see the next 7 days of passes ≥ 10°. The values pass through the URL so the page stays shareable.

No JS? Fill the form by hand. The geolocation button needs JavaScript.